User: anonymous   Login
Location: *
(2.5500°S, 65.9667°W)
Time: 01:23:00
(UTC+00:00)
Language:

Fermi - Orbit

View from above orbital plane
View from above orbital plane
View from above satellite
View from above satellite

Ground track
Ground track

The orbit data is extracted from the following two-line orbital elements,

1 33053U 08029A   22020.53081266  .00001314  00000-0  57998-4 0  9991
2 33053  25.5830  95.4785 0011802 266.3548  93.5638 15.11750127751280
Epoch (UTC): 20 January 2022 12:44:22
Eccentricity: 0.0011802
inclination: 25.5830°
perigee height: 523 km
apogee height: 539 km
right ascension of ascending node: 95.4785°
argument of perigee: 266.3548°
revolutions per day: 15.11750127
mean anomaly at epoch: 93.5638°
orbit number at epoch: 75128

The dashed part of the orbit path shows where the satellite is in the earth's shadow,  

DLR